Weather History for Kendall, FL

Change the Weather History Date:

Thursday, March 21, 2013

  Actual Average Record
Temperature  
Mean Temperature 70 °F -  
Max Temperature 80 °F 81 °F 89 °F (2006)
Min Temperature 60 °F 58 °F 49 °F (1992)
Cooling Degree Days 4    
Growing Degree Days 20 (Base 50)    
Moisture  
Dew Point 56 °F    
Average Humidity 71    
Maximum Humidity 100    
Minimum Humidity 36    
Precipitation  
Precipitation 0.00 in - - ()
Sea Level Pressure  
Sea Level Pressure 29.90 in    
Wind  
Wind Speed 7 mph (NNW)    
Max Wind Speed 14 mph    
Max Gust Speed 20 mph    
Visibility 10 miles    
Events      
Averages and records for this station are not official NWS values.
T = Trace of Precipitation, MM = Missing Value Source: NWS Daily Summary

Daily Weather History Graph

Daily Weather History Graph

Search for Another Location

Airport:

Trip Planner

Search our weather history database for the weather conditions in past years. The results will help you decide how hot, cold, wet, or windy it might be!

Date:

Astronomy

Mar. 21, 2013 Rise Set
Actual Time 7:24 AM EDT 7:33 PM EDT
Civil Twilight 7:01 AM EDT 7:56 PM EDT
Nautical Twilight 6:34 AM EDT 8:23 PM EDT
Astronomical Twilight 6:07 AM EDT 8:50 PM EDT
Moon 2:29 PM EDT (3/21) 3:16 AM EDT (3/21)
Length of Visible Light 12h 55m
Length of Day
12h 09m
Waxing Gibbous, 68% of the Moon is Illuminated
Mar 21
Waxing Gibbous
Mar 27
Full
Apr 3
Last Quarter
Apr 10
New
Apr 18
First Quarter

Hourly Weather History & Observations

Time (EDT) Temp. Dew Point Humidity Pressure Visibility Wind Dir Wind Speed Gust Speed Precip Events Conditions
12:53 AM 64.0 °F 60.1 °F 87% 29.87 in 10.0 mi NNW 6.9 mph - N/A   Clear
1:53 AM 62.6 °F 60.8 °F 94% 29.87 in 10.0 mi WNW 5.8 mph - N/A   Clear
2:44 AM 60.8 °F 59.0 °F 94% 29.87 in 10.0 mi WNW 5.8 mph - N/A   Mostly Cloudy
2:53 AM 62.1 °F 60.1 °F 93% 29.87 in 10.0 mi WNW 4.6 mph - N/A   Mostly Cloudy
3:15 AM 60.8 °F 59.0 °F 94% 29.86 in 10.0 mi West 5.8 mph - N/A   Scattered Clouds
3:53 AM 61.0 °F 60.1 °F 97% 29.86 in 10.0 mi WNW 3.5 mph - N/A   Partly Cloudy
4:42 AM 60.8 °F 60.8 °F 100% 29.87 in 10.0 mi NW 4.6 mph - N/A   Mostly Cloudy
4:53 AM 62.1 °F 61.0 °F 96% 29.87 in 10.0 mi NW 6.9 mph - N/A   Overcast
5:31 AM 62.6 °F 60.8 °F 94% 29.87 in 10.0 mi NW 5.8 mph - N/A   Scattered Clouds
5:53 AM 60.1 °F 60.1 °F 100% 29.88 in 10.0 mi WNW 4.6 mph - N/A   Clear
6:53 AM 60.1 °F 60.1 °F 100% 29.89 in 10.0 mi WNW 4.6 mph - N/A   Scattered Clouds
7:53 AM 64.0 °F 61.0 °F 90% 29.91 in 10.0 mi North 10.4 mph - N/A   Overcast
8:53 AM 64.9 °F 60.1 °F 84% 29.93 in 10.0 mi North 12.7 mph 19.6 mph N/A   Mostly Cloudy
9:53 AM 68.0 °F 57.0 °F 68% 29.94 in 10.0 mi North 13.8 mph - N/A   Clear
10:53 AM 70.0 °F 50.0 °F 49% 29.95 in 10.0 mi North 13.8 mph - N/A   Clear
11:53 AM 73.0 °F 48.0 °F 41% 29.94 in 10.0 mi North 10.4 mph - N/A   Clear
12:53 PM 75.0 °F 50.0 °F 41% 29.94 in 10.0 mi NE 8.1 mph - N/A   Clear
1:53 PM 75.9 °F 48.9 °F 38% 29.91 in 10.0 mi Variable 4.6 mph - N/A   Clear
2:53 PM 78.1 °F 48.9 °F 36% 29.89 in 10.0 mi WNW 11.5 mph 16.1 mph N/A   Mostly Cloudy
3:53 PM 78.1 °F 48.9 °F 36% 29.89 in 10.0 mi NNW 6.9 mph - N/A   Clear
4:53 PM 79.0 °F 50.0 °F 36% 29.89 in 10.0 mi WNW 8.1 mph - N/A   Clear
5:53 PM 77.0 °F 48.9 °F 37% 29.89 in 10.0 mi NW 6.9 mph - N/A   Partly Cloudy
6:53 PM 72.0 °F 54.0 °F 53% 29.91 in 10.0 mi ESE 9.2 mph - N/A   Mostly Cloudy
7:53 PM 69.1 °F 54.0 °F 58% 29.92 in 10.0 mi East 8.1 mph - N/A   Mostly Cloudy
8:53 PM 66.0 °F 54.0 °F 65% 29.94 in 10.0 mi East 8.1 mph - N/A   Scattered Clouds
9:53 PM 64.9 °F 54.0 °F 68% 29.95 in 10.0 mi East 5.8 mph - N/A   Clear
10:53 PM 64.9 °F 55.0 °F 70% 29.95 in 10.0 mi East 4.6 mph - N/A   Clear
11:53 PM 66.0 °F 55.9 °F 70% 29.96 in 10.0 mi East 3.5 mph - N/A   Partly Cloudy